Zurück zum Katalog

BREEZE-M DEB

TANK

AktivHEO
NORAD 33374·DEBRIS·🇷🇺 Russia

Gestartet Sep 19, 2008 von Baikonur Cosmodrome

Loading…

Nächste Überflüge (nächste 24 Stunden)

TLE

AktuellSource: Space-Track

Epoche: Sep 14, 2026, 08:59 UTC

1 33374U 08044B   26257.37498123  .00002895  00000-0  67777-3 0  9996
2 33374  49.4915  50.8915 5389838 330.9090   7.5395  4.96871808319643

Verfolge BREEZE-M DEB in Echtzeit mit AllMySat

Download on the App Store